Home   Weather   Montes Claros   Past weeks

Flag for Brazil Past Weather in Montes Claros, Minas Gerais, Brazil — Yesterday and Last 2 Weeks

Now
68 °F

Clear.


Feels Like: 68 °F
Forecast: 71 / 88 °F
Wind: 9 mph from East

Location: Belo Horizonte Airport

Current Time: Dec 3, 2016 at 12:36:46 am

Latest Report: Dec 3, 2016 at 12:00 am


Visibility: 10 mi

Pressure: 30.09 "Hg (27.95 "Hg at 632m altitude)

Humidity: 83%

Dew Point: 63 °F

Location of Montes ClarosLocation

Past Weather in Montes Claros — Graph

°F

Montes Claros Temperature Yesterday

Maximum temperature yesterday: 77 °F (at 5:00 pm)
Minimum temperature yesterday: 63 °F (at 2:00 am)
Average temperature yesterday: 69 °F

High & Low Weather Summary for the Past Weeks

 TemperatureHumidityPressure
High88 °F (Nov 29, 4:00 pm)100% (Nov 22, 9:00 pm)30.18 "Hg (Nov 22, 9:00 pm)
Low54 °F (Nov 20, 5:00 am)30% (Nov 23, 7:00 am)29.77 "Hg (Nov 18, 6:00 pm)
Average71 °F73%30.03 "Hg
* Reported Nov 17 11:00 pm — Dec 2 11:00 pm, Montes Claros, Weather by CustomWeather, © 2016

Note: Actual official high and low records may vary slightly from our data, if they occured in-between our weather recording intervals... More about our weather records

Advertising

Montes Claros Weather History for the Previous 24 Hours

Scroll right to see more
 ConditionsComfort  
Time TempWeatherWind HumidityBarometerVisibility
11:00 pm
Fri, Dec 2
68 °FClear.8 mph83%30.09 "Hg10 mi
10:00 pm68 °FClear.9 mph83%30.09 "Hg10 mi
9:00 pm70 °FClear.10 mph78%30.09 "Hg10 mi
8:00 pm72 °FClear.12 mph73%30.07 "Hg10 mi
7:00 pm73 °FPassing clouds.9 mph74%30.07 "HgN/A
6:00 pm75 °FBroken clouds.12 mph65%30.07 "HgN/A
5:00 pm77 °FPartly sunny.7 mph61%30.09 "HgN/A
4:00 pm75 °FPartly sunny.5 mph65%30.09 "HgN/A
3:00 pm75 °FPartly sunny.3 mph65%30.12 "HgN/A
2:00 pm75 °FPartly sunny.6 mph65%30.15 "HgN/A
1:00 pm75 °FPartly sunny.6 mph65%30.15 "HgN/A
12:00 pm73 °FPartly sunny.6 mph69%30.15 "HgN/A
11:00 am73 °FScattered clouds.7 mph69%30.18 "HgN/A
10:00 am70 °FScattered clouds.7 mph73%30.18 "HgN/A
9:00 am68 °FPartly sunny.8 mph83%30.15 "HgN/A
8:00 am64 °FBroken clouds.6 mph88%30.15 "HgN/A
7:00 am63 °FPartly sunny.10 mph94%30.12 "HgN/A
6:00 am63 °FPassing clouds.10 mph88%30.12 "HgN/A
5:00 am63 °FPassing clouds.8 mph88%30.12 "HgN/A
4:00 am63 °FPassing clouds.12 mph88%30.12 "HgN/A
3:00 am63 °FPassing clouds.13 mph88%30.12 "HgN/A
2:00 am63 °FPassing clouds.9 mph94%30.15 "HgN/A
1:00 am64 °FPassing clouds.9 mph83%30.15 "HgN/A
12:00 am64 °FPassing clouds.9 mph88%30.18 "HgN/A
Weather by CustomWeather, © 2016

See weather overviewHow to use our weather pages